COSMOS 1275 DEB, 12964

Orbit data source: Space-Track

COSMOS 1275 DEB, 12964 is space debris in LEO originally from a launch on Thu, 04 Jun 1981 UTC launched from the Plesetsk Missile And Space Complex (PKMTR). Debris objects in space refer to the collection of defunct objects orbiting the Earth. Examples of debris include non-operational satellites, rocket bodies, and fragments generated from explosions, collisions, or faulty payload assembly.

Loading next visibility...
Identifier
12964, 1981-053EK
Orbit
LEO
Country
Flag of CISCIS
Related business
Manufacturer
Unknown
Mission
Spacecraft
Bus & Motor
Unknown
Mass
Unknown
Launch date (UTC)
1981-06-04 (45 years ago)
Launch vehicle
Unknown
Launch site
Plesetsk Missile And Space Complex (PKMTR)
Object type
Payload
Rocket body
Debris
Shape & HBR
Unknown shape, 0.1 m
Radar Cross Section
Medium (>0.1 m² and <1 m²)

Expand to show TLE details & history
Last TLE update: 2 days ago

TLE from 2 days ago
0 COSMOS 1275 DEB
1 12964U 81053EK  26171.28549149  .00000050  00000-0  32243-4 0  9991
2 12964  82.9456 113.7028 0039911 125.2489  27.3438 13.80315024249249
Epoch: 2026-06-20T06:51Z
TLE epoch observation values (Epoch: 2026-06-20T06:51:06.464Z)
Latitude
27.01115°
Longitude
-81.17433°
Altitude
940.063 km
Speed
7.397 km/s
True Right ascension
19h 20m 25s
True Declination
26° 52' 33"
Sunlit
Object was in full shadow at epoch
Visualization orbit readout
Latitude
Unknown
Longitude
Unknown
Altitude
Unknown
Speed
Unknown
Apparent Right ascension
Unknown
Apparent Declination
Unknown
Sunlit
N/A
Visualization observer readout
Local Sidereal Time
19:06:38
Azimuth
Unknown
Elevation
Unknown
Doppler factor
Unknown
Orbital elements
Apogee altitude
989.198 km
Perigee altitude
930.624 km
Semi-major axis
7,338.048 km
Eccentricity
0.00399
Inclination
82.9456°
RAAN
113.7028°
Arg. of periapsis
125.2489°
True anomaly
27.55481°
Mean anomaly
27.3438°
Eccentric anomaly
27.44921°
Mean motion
3.45281 °/min
Orbital period
104.26 mins
BSTAR
0.000032243
Loading maneuver chart data...
Computing Atmospheric mass density...

Documentation

Showing up to 5 results
|